Time,TemperatureF,DewpointF,PressureIn,WindDirection,WindDirectionDegrees,WindSpeedMPH,WindSpeedGustMPH,Humidity,HourlyPrecipIn,Conditions,Clouds,dailyrainin,SoftwareType,DateUTC
2013-10-10 00:05:00,32.1,27.8,29.36,SSE,152,6.0,6.0,84,0.00,,,0.00,Wunderground v.1.15,2013-10-10 08:05:00,
2013-10-10 00:15:00,32.4,28.1,29.35,SSE,153,6.0,8.0,84,0.00,,,0.00,Wunderground v.1.15,2013-10-10 08:15:00,
2013-10-10 00:20:00,32.5,28.2,29.35,SSE,149,6.0,6.0,84,0.00,,,0.00,Wunderground v.1.15,2013-10-10 08:20:00,
2013-10-10 00:30:00,32.7,28.4,29.35,SSE,153,7.0,8.0,84,0.00,,,0.00,Wunderground v.1.15,2013-10-10 08:30:00,
2013-10-10 00:40:00,33.1,28.5,29.35,SSE,149,9.0,13.0,83,0.00,,,0.00,Wunderground v.1.15,2013-10-10 08:40:00,
2013-10-10 00:50:00,33.8,28.6,29.34,South,173,11.0,11.0,81,0.00,,,0.00,Wunderground v.1.15,2013-10-10 08:50:00,
2013-10-10 01:00:00,33.7,28.5,29.33,SE,143,11.0,11.0,81,0.00,,,0.00,Wunderground v.1.15,2013-10-10 09:00:00,
2013-10-10 01:05:00,33.8,28.6,29.33,SSE,156,11.0,11.0,81,0.00,,,0.00,Wunderground v.1.15,2013-10-10 09:05:00,
2013-10-10 01:15:00,34.1,29.2,29.33,SE,142,9.0,12.0,82,0.00,,,0.00,Wunderground v.1.15,2013-10-10 09:15:00,
2013-10-10 01:25:00,34.1,29.2,29.33,SE,140,10.0,10.0,82,0.00,,,0.00,Wunderground v.1.15,2013-10-10 09:25:00,
2013-10-10 01:30:00,34.0,29.4,29.32,SE,143,9.0,9.0,83,0.00,,,0.00,Wunderground v.1.15,2013-10-10 09:30:00,
2013-10-10 01:40:00,33.7,30.0,29.32,SSE,155,7.0,10.0,86,0.00,,,0.00,Wunderground v.1.15,2013-10-10 09:40:00,
2013-10-10 01:50:00,33.5,30.3,29.31,SSE,152,8.0,11.0,88,0.00,,,0.00,Wunderground v.1.15,2013-10-10 09:50:00,
2013-10-10 02:00:00,33.5,30.9,29.30,SE,145,10.0,10.0,90,0.00,,,0.00,Wunderground v.1.15,2013-10-10 10:00:00,
2013-10-10 02:10:00,33.5,30.9,29.30,SE,132,10.0,10.0,90,0.00,,,0.00,Wunderground v.1.15,2013-10-10 10:10:00,
2013-10-10 02:15:00,33.5,30.9,29.29,SSE,149,9.0,10.0,90,0.00,,,0.00,Wunderground v.1.15,2013-10-10 10:15:00,
2013-10-10 02:25:00,33.7,31.6,29.29,SSE,156,10.0,19.0,92,0.00,,,0.00,Wunderground v.1.15,2013-10-10 10:25:00,
2013-10-10 02:35:00,33.8,31.7,29.28,SSE,155,12.0,12.0,92,0.00,,,0.00,Wunderground v.1.15,2013-10-10 10:35:00,
2013-10-10 02:45:00,33.8,31.7,29.28,SE,145,10.0,13.0,92,0.00,,,0.00,Wunderground v.1.15,2013-10-10 10:45:00,
2013-10-10 02:50:00,33.7,31.6,29.28,SSE,155,10.0,13.0,92,0.00,,,0.00,Wunderground v.1.15,2013-10-10 10:50:00,
2013-10-10 03:00:00,33.7,31.6,29.26,SE,140,14.0,14.0,92,0.00,,,0.00,Wunderground v.1.15,2013-10-10 11:00:00,
2013-10-10 03:05:00,33.8,32.3,29.26,SSE,152,12.0,14.0,94,0.00,,,0.01,Wunderground v.1.15,2013-10-10 11:05:00,
2013-10-10 03:15:00,33.8,32.3,29.26,SSE,153,12.0,17.0,94,0.00,,,0.01,Wunderground v.1.15,2013-10-10 11:15:00,
2013-10-10 03:20:00,33.8,32.3,29.26,SSE,155,12.0,19.0,94,0.00,,,0.01,Wunderground v.1.15,2013-10-10 11:20:00,
2013-10-10 03:25:00,33.8,32.3,29.26,SSE,153,13.0,19.0,94,0.00,,,0.01,Wunderground v.1.15,2013-10-10 11:25:00,
2013-10-10 03:35:00,34.1,32.8,29.25,SSE,152,13.0,14.0,95,0.00,,,0.01,Wunderground v.1.15,2013-10-10 11:35:00,
2013-10-10 03:45:00,34.0,32.7,29.24,SE,143,13.0,14.0,95,0.00,,,0.02,Wunderground v.1.15,2013-10-10 11:45:00,
2013-10-10 03:50:00,34.1,32.8,29.24,SSE,155,13.0,18.0,95,0.00,,,0.02,Wunderground v.1.15,2013-10-10 11:50:00,
2013-10-10 04:00:00,34.1,32.8,29.23,SSE,152,12.0,12.0,95,0.00,,,0.02,Wunderground v.1.15,2013-10-10 12:00:00,
2013-10-10 04:10:00,34.4,33.1,29.23,SSE,164,13.0,13.0,95,0.00,,,0.02,Wunderground v.1.15,2013-10-10 12:10:00,
2013-10-10 04:20:00,34.6,33.3,29.23,SSE,156,15.0,15.0,95,0.00,,,0.02,Wunderground v.1.15,2013-10-10 12:20:00,
2013-10-10 04:25:00,34.6,33.1,29.23,SSE,156,15.0,15.0,94,0.00,,,0.02,Wunderground v.1.15,2013-10-10 12:25:00,
2013-10-10 04:35:00,34.4,33.1,29.22,SSE,156,15.0,19.0,95,0.00,,,0.02,Wunderground v.1.15,2013-10-10 12:35:00,
2013-10-10 04:45:00,34.4,33.1,29.21,SSE,156,15.0,16.0,95,0.00,,,0.02,Wunderground v.1.15,2013-10-10 12:45:00,
2013-10-10 04:55:00,34.4,33.1,29.21,SSE,156,13.0,26.0,95,0.00,,,0.02,Wunderground v.1.15,2013-10-10 12:55:00,
2013-10-10 05:05:00,34.4,33.1,29.20,SSE,156,15.0,16.0,95,0.00,,,0.02,Wunderground v.1.15,2013-10-10 13:05:00,
2013-10-10 05:10:00,34.4,33.1,29.20,SSE,156,15.0,21.0,95,0.00,,,0.02,Wunderground v.1.15,2013-10-10 13:10:00,
2013-10-10 05:20:00,34.4,33.1,29.19,SSE,156,15.0,17.0,95,0.00,,,0.02,Wunderground v.1.15,2013-10-10 13:20:00,
2013-10-10 05:30:00,34.6,33.3,29.18,SSE,152,15.0,17.0,95,0.00,,,0.02,Wunderground v.1.15,2013-10-10 13:30:00,
2013-10-10 05:40:00,34.6,33.3,29.18,SSE,155,15.0,20.0,95,0.00,,,0.02,Wunderground v.1.15,2013-10-10 13:40:00,
2013-10-10 05:50:00,34.9,33.6,29.17,SSE,156,16.0,20.0,95,0.00,,,0.02,Wunderground v.1.15,2013-10-10 13:50:00,
2013-10-10 05:55:00,34.7,33.4,29.17,SSE,164,16.0,20.0,95,0.00,,,0.02,Wunderground v.1.15,2013-10-10 13:55:00,
2013-10-10 06:05:00,34.9,33.6,29.17,SSE,156,16.0,16.0,95,0.00,,,0.03,Wunderground v.1.15,2013-10-10 14:05:00,
2013-10-10 06:15:00,34.9,33.6,29.17,SSE,156,16.0,17.0,95,0.00,,,0.03,Wunderground v.1.15,2013-10-10 14:15:00,
2013-10-10 06:25:00,34.7,33.4,29.17,SE,143,15.0,19.0,95,0.00,,,0.03,Wunderground v.1.15,2013-10-10 14:25:00,
2013-10-10 06:30:00,34.4,33.1,29.17,SSE,153,15.0,15.0,95,0.00,,,0.03,Wunderground v.1.15,2013-10-10 14:30:00,
2013-10-10 06:40:00,34.7,33.7,29.17,South,173,16.0,16.0,96,0.00,,,0.03,Wunderground v.1.15,2013-10-10 14:40:00,
2013-10-10 06:50:00,34.7,33.7,29.16,SSE,155,15.0,15.0,96,0.00,,,0.03,Wunderground v.1.15,2013-10-10 14:50:00,
2013-10-10 07:05:00,34.7,33.9,29.15,SSE,157,15.0,19.0,97,0.00,,,0.03,Wunderground v.1.15,2013-10-10 15:05:00,
2013-10-10 07:10:00,34.7,33.9,29.15,SSE,153,15.0,15.0,97,0.00,,,0.03,Wunderground v.1.15,2013-10-10 15:10:00,
2013-10-10 07:20:00,34.6,34.1,29.15,SSE,156,14.0,14.0,98,0.00,,,0.04,Wunderground v.1.15,2013-10-10 15:20:00,
2013-10-10 07:30:00,34.6,34.1,29.14,SSE,156,26.0,26.0,98,0.06,,,0.04,Wunderground v.1.15,2013-10-10 15:30:00,
2013-10-10 07:35:00,34.4,33.9,29.14,SSE,156,17.0,26.0,98,0.06,,,0.04,Wunderground v.1.15,2013-10-10 15:35:00,
2013-10-10 07:45:00,34.4,33.9,29.14,SSE,152,16.0,18.0,98,0.04,,,0.06,Wunderground v.1.15,2013-10-10 15:45:00,
2013-10-10 07:50:00,34.1,33.6,29.14,SSE,156,16.0,20.0,98,0.04,,,0.06,Wunderground v.1.15,2013-10-10 15:50:00,
2013-10-10 08:00:00,34.0,33.5,29.14,SSE,156,18.0,18.0,98,0.05,,,0.07,Wunderground v.1.15,2013-10-10 16:00:00,
2013-10-10 08:10:00,34.1,33.3,29.14,SSE,152,16.0,21.0,97,0.04,,,0.07,Wunderground v.1.15,2013-10-10 16:10:00,
2013-10-10 08:20:00,34.1,33.6,29.13,SSE,156,15.0,21.0,98,0.06,,,0.09,Wunderground v.1.15,2013-10-10 16:20:00,
2013-10-10 08:30:00,34.3,33.8,29.12,SSE,153,17.0,22.0,98,0.06,,,0.10,Wunderground v.1.15,2013-10-10 16:30:00,
2013-10-10 08:35:00,34.6,34.1,29.12,SSE,155,18.0,22.0,98,0.06,,,0.10,Wunderground v.1.15,2013-10-10 16:35:00,
2013-10-10 08:45:00,34.7,34.2,29.12,SSE,156,16.0,18.0,98,0.06,,,0.10,Wunderground v.1.15,2013-10-10 16:45:00,
2013-10-10 08:50:00,34.7,34.2,29.12,SSE,156,16.0,16.0,98,0.06,,,0.11,Wunderground v.1.15,2013-10-10 16:50:00,
2013-10-10 09:00:00,35.5,35.0,29.12,SSE,152,16.0,21.0,98,0.04,,,0.12,Wunderground v.1.15,2013-10-10 17:00:00,
2013-10-10 09:10:00,35.8,35.8,29.12,SE,146,15.0,21.0,100,0.04,,,0.12,Wunderground v.1.15,2013-10-10 17:10:00,
2013-10-10 09:20:00,36.0,36.0,29.11,SSE,160,15.0,18.0,100,0.00,,,0.12,Wunderground v.1.15,2013-10-10 17:20:00,
2013-10-10 09:30:00,36.0,36.0,29.11,SSE,156,16.0,18.0,100,0.00,,,0.12,Wunderground v.1.15,2013-10-10 17:30:00,
2013-10-10 09:35:00,36.2,36.2,29.11,SSE,152,16.0,18.0,100,0.00,,,0.12,Wunderground v.1.15,2013-10-10 17:35:00,
2013-10-10 09:45:00,36.3,36.3,29.11,SSE,149,17.0,20.0,100,0.04,,,0.12,Wunderground v.1.15,2013-10-10 17:45:00,
2013-10-10 09:55:00,36.5,36.5,29.11,SSE,155,14.0,20.0,100,0.04,,,0.12,Wunderground v.1.15,2013-10-10 17:55:00,
2013-10-10 10:05:00,36.6,36.6,29.11,SSE,150,16.0,16.0,100,0.00,,,0.12,Wunderground v.1.15,2013-10-10 18:05:00,
2013-10-10 10:10:00,36.6,36.6,29.11,SSE,153,14.0,14.0,100,0.00,,,0.12,Wunderground v.1.15,2013-10-10 18:10:00,
2013-10-10 10:20:00,37.3,37.3,29.11,SE,139,14.0,16.0,100,0.00,,,0.12,Wunderground v.1.15,2013-10-10 18:20:00,
2013-10-10 10:30:00,37.5,37.5,29.11,SSE,155,14.0,14.0,100,0.00,,,0.12,Wunderground v.1.15,2013-10-10 18:30:00,
2013-10-10 10:35:00,37.6,37.6,29.11,SSE,156,14.0,14.0,100,0.00,,,0.12,Wunderground v.1.15,2013-10-10 18:35:00,
2013-10-10 10:45:00,37.5,37.5,29.10,SSE,153,15.0,15.0,100,0.00,,,0.15,Wunderground v.1.15,2013-10-10 18:45:00,
2013-10-10 10:55:00,37.5,37.5,29.10,SSE,156,14.0,17.0,100,0.00,,,0.15,Wunderground v.1.15,2013-10-10 18:55:00,
2013-10-10 11:10:00,37.5,37.5,29.10,SSE,155,12.0,17.0,100,0.00,,,0.15,Wunderground v.1.15,2013-10-10 19:10:00,
2013-10-10 11:20:00,38.2,38.2,29.10,SSE,159,14.0,14.0,100,0.00,,,0.15,Wunderground v.1.15,2013-10-10 19:20:00,
2013-10-10 11:25:00,38.3,38.3,29.10,SSE,156,12.0,14.0,100,0.00,,,0.15,Wunderground v.1.15,2013-10-10 19:25:00,
2013-10-10 11:30:00,38.5,38.5,29.10,SSE,155,12.0,12.0,100,0.00,,,0.15,Wunderground v.1.15,2013-10-10 19:30:00,
2013-10-10 11:40:00,38.5,38.5,29.10,SSE,156,14.0,16.0,100,0.00,,,0.15,Wunderground v.1.15,2013-10-10 19:40:00,
2013-10-10 11:50:00,38.6,38.6,29.10,SSE,156,15.0,15.0,100,0.00,,,0.15,Wunderground v.1.15,2013-10-10 19:50:00,
2013-10-10 11:55:00,38.6,38.6,29.10,SSE,162,13.0,15.0,100,0.00,,,0.15,Wunderground v.1.15,2013-10-10 19:55:00,
2013-10-10 12:05:00,39.3,39.3,29.10,SSE,156,12.0,12.0,100,0.00,,,0.15,Wunderground v.1.15,2013-10-10 20:05:00,
2013-10-10 12:15:00,39.5,39.5,29.10,SSE,156,13.0,13.0,100,0.00,,,0.15,Wunderground v.1.15,2013-10-10 20:15:00,
2013-10-10 12:25:00,39.6,39.6,29.10,SSE,166,13.0,18.0,100,0.00,,,0.17,Wunderground v.1.15,2013-10-10 20:25:00,
2013-10-10 12:35:00,39.5,39.5,29.10,SSE,162,14.0,14.0,100,0.00,,,0.17,Wunderground v.1.15,2013-10-10 20:35:00,
2013-10-10 12:45:00,39.6,39.6,29.10,SSE,167,13.0,13.0,100,0.00,,,0.17,Wunderground v.1.15,2013-10-10 20:45:00,
2013-10-10 12:55:00,39.8,39.8,29.10,SSE,166,14.0,14.0,100,0.04,,,0.19,Wunderground v.1.15,2013-10-10 20:55:00,
2013-10-10 13:05:00,39.9,39.9,29.10,SSE,156,12.0,13.0,100,0.04,,,0.19,Wunderground v.1.15,2013-10-10 21:05:00,
2013-10-10 13:15:00,40.2,40.2,29.09,South,174,12.0,18.0,100,0.04,,,0.20,Wunderground v.1.15,2013-10-10 21:15:00,
2013-10-10 13:25:00,40.3,40.3,29.09,South,169,13.0,13.0,100,0.04,,,0.21,Wunderground v.1.15,2013-10-10 21:25:00,
2013-10-10 13:30:00,40.6,40.6,29.09,South,177,14.0,14.0,100,0.04,,,0.21,Wunderground v.1.15,2013-10-10 21:30:00,
2013-10-10 13:40:00,40.6,40.6,29.09,SSE,167,14.0,16.0,100,0.00,,,0.21,Wunderground v.1.15,2013-10-10 21:40:00,
2013-10-10 13:50:00,40.8,40.8,29.09,South,169,15.0,15.0,100,0.00,,,0.21,Wunderground v.1.15,2013-10-10 21:50:00,
2013-10-10 13:55:00,40.8,40.8,29.09,SSE,156,13.0,15.0,100,0.00,,,0.21,Wunderground v.1.15,2013-10-10 21:55:00,
2013-10-10 14:05:00,41.1,41.1,29.09,SSE,157,14.0,17.0,100,0.00,,,0.21,Wunderground v.1.15,2013-10-10 22:05:00,
2013-10-10 14:15:00,40.9,40.9,29.09,SSE,164,14.0,14.0,100,0.00,,,0.21,Wunderground v.1.15,2013-10-10 22:15:00,
2013-10-10 14:25:00,40.9,40.9,29.09,SSE,156,13.0,13.0,100,0.00,,,0.21,Wunderground v.1.15,2013-10-10 22:25:00,
2013-10-10 14:35:00,41.2,41.2,29.08,South,177,14.0,18.0,100,0.00,,,0.21,Wunderground v.1.15,2013-10-10 22:35:00,
2013-10-10 14:45:00,41.3,41.3,29.08,SSE,157,15.0,20.0,100,0.00,,,0.21,Wunderground v.1.15,2013-10-10 22:45:00,
2013-10-10 14:55:00,41.1,41.1,29.08,SSE,156,14.0,14.0,100,0.00,,,0.21,Wunderground v.1.15,2013-10-10 22:55:00,
2013-10-10 15:05:00,40.9,40.9,29.08,SSE,162,13.0,18.0,100,0.00,,,0.21,Wunderground v.1.15,2013-10-10 23:05:00,
2013-10-10 15:20:00,40.6,40.6,29.07,SSE,164,13.0,15.0,100,0.00,,,0.22,Wunderground v.1.15,2013-10-10 23:20:00,
2013-10-10 15:30:00,40.5,40.5,29.07,South,174,12.0,13.0,100,0.04,,,0.23,Wunderground v.1.15,2013-10-10 23:30:00,
2013-10-10 15:40:00,40.9,40.9,29.07,SSE,152,11.0,18.0,100,0.05,,,0.23,Wunderground v.1.15,2013-10-10 23:40:00,
2013-10-10 15:45:00,40.9,40.9,29.06,SSE,156,13.0,18.0,100,0.05,,,0.24,Wunderground v.1.15,2013-10-10 23:45:00,
2013-10-10 15:55:00,40.8,40.8,29.06,SSE,157,14.0,14.0,100,0.06,,,0.25,Wunderground v.1.15,2013-10-10 23:55:00,
2013-10-10 16:05:00,40.8,40.8,29.06,SSE,155,15.0,15.0,100,0.04,,,0.26,Wunderground v.1.15,2013-10-11 00:05:00,
2013-10-10 16:15:00,40.9,40.9,29.05,SSE,155,15.0,18.0,100,0.04,,,0.26,Wunderground v.1.15,2013-10-11 00:15:00,
2013-10-10 16:25:00,41.1,41.1,29.05,South,177,16.0,16.0,100,0.00,,,0.26,Wunderground v.1.15,2013-10-11 00:25:00,
2013-10-10 16:35:00,41.1,41.1,29.05,SSE,160,15.0,16.0,100,0.00,,,0.26,Wunderground v.1.15,2013-10-11 00:35:00,
2013-10-10 16:45:00,40.9,40.9,29.05,South,179,15.0,16.0,100,0.00,,,0.27,Wunderground v.1.15,2013-10-11 00:45:00,
2013-10-10 16:55:00,41.1,41.1,29.05,SSE,156,15.0,17.0,100,0.04,,,0.28,Wunderground v.1.15,2013-10-11 00:55:00,
2013-10-10 17:05:00,41.3,41.3,29.05,South,169,15.0,15.0,100,0.05,,,0.29,Wunderground v.1.15,2013-10-11 01:05:00,
2013-10-10 17:15:00,41.3,41.3,29.04,SSE,155,15.0,18.0,100,0.05,,,0.29,Wunderground v.1.15,2013-10-11 01:15:00,
2013-10-10 17:20:00,41.3,41.3,29.04,South,186,15.0,16.0,100,0.04,,,0.29,Wunderground v.1.15,2013-10-11 01:20:00,
2013-10-10 17:30:00,41.3,41.3,29.04,SSE,155,14.0,14.0,100,0.00,,,0.30,Wunderground v.1.15,2013-10-11 01:30:00,
2013-10-10 17:40:00,41.2,41.2,29.04,SSE,159,13.0,13.0,100,0.00,,,0.30,Wunderground v.1.15,2013-10-11 01:40:00,
2013-10-10 17:45:00,41.2,41.2,29.04,SSW,194,13.0,13.0,100,0.00,,,0.30,Wunderground v.1.15,2013-10-11 01:45:00,
2013-10-10 17:55:00,41.2,41.2,29.04,SSE,156,12.0,14.0,100,0.00,,,0.31,Wunderground v.1.15,2013-10-11 01:55:00,
2013-10-10 18:00:00,41.1,41.1,29.04,South,169,12.0,12.0,100,0.04,,,0.31,Wunderground v.1.15,2013-10-11 02:00:00,
2013-10-10 18:10:00,41.1,41.1,29.04,SSE,163,13.0,20.0,100,0.06,,,0.33,Wunderground v.1.15,2013-10-11 02:10:00,
2013-10-10 18:15:00,41.1,41.1,29.04,South,169,13.0,20.0,100,0.06,,,0.33,Wunderground v.1.15,2013-10-11 02:15:00,
2013-10-10 18:25:00,41.2,41.2,29.04,SSE,164,11.0,16.0,100,0.04,,,0.34,Wunderground v.1.15,2013-10-11 02:25:00,
2013-10-10 18:35:00,41.2,41.2,29.04,South,170,14.0,14.0,100,0.05,,,0.34,Wunderground v.1.15,2013-10-11 02:35:00,
2013-10-10 18:40:00,41.5,41.5,29.04,South,188,10.0,10.0,100,0.05,,,0.34,Wunderground v.1.15,2013-10-11 02:40:00,
2013-10-10 18:50:00,41.6,41.6,29.05,SW,221,9.0,9.0,100,0.04,,,0.36,Wunderground v.1.15,2013-10-11 02:50:00,
2013-10-10 18:55:00,41.6,41.6,29.05,SSW,196,9.0,9.0,100,0.04,,,0.36,Wunderground v.1.15,2013-10-11 02:55:00,
2013-10-10 19:00:00,41.6,41.6,29.05,SW,221,7.0,7.0,100,0.04,,,0.36,Wunderground v.1.15,2013-10-11 03:00:00,
2013-10-10 19:10:00,41.6,41.6,29.05,SW,217,7.0,7.0,100,0.04,,,0.37,Wunderground v.1.15,2013-10-11 03:10:00,
2013-10-10 19:15:00,41.5,41.5,29.05,SW,215,8.0,9.0,100,0.04,,,0.37,Wunderground v.1.15,2013-10-11 03:15:00,
2013-10-10 19:25:00,41.2,41.2,29.05,SW,224,8.0,8.0,100,0.00,,,0.37,Wunderground v.1.15,2013-10-11 03:25:00,
2013-10-10 19:35:00,41.1,41.1,29.06,SW,214,7.0,11.0,100,0.00,,,0.37,Wunderground v.1.15,2013-10-11 03:35:00,
2013-10-10 19:45:00,40.8,40.8,29.06,SW,220,7.0,8.0,100,0.00,,,0.38,Wunderground v.1.15,2013-10-11 03:45:00,
2013-10-10 19:54:00,40.8,40.8,29.06,SW,221,7.0,7.0,100,0.05,,,0.39,Wunderground v.1.15,2013-10-11 03:54:00,
2013-10-10 19:59:00,40.6,40.6,29.07,SW,232,8.0,8.0,100,0.05,,,0.39,Wunderground v.1.15,2013-10-11 03:59:00,
2013-10-10 20:05:00,40.6,40.6,29.07,SW,218,7.0,8.0,100,0.05,,,0.39,Wunderground v.1.15,2013-10-11 04:05:00,
2013-10-10 20:09:00,40.6,40.6,29.07,SW,224,6.0,7.0,100,0.04,,,0.39,Wunderground v.1.15,2013-10-11 04:09:00,
2013-10-10 20:14:00,40.6,40.6,29.07,SW,217,6.0,7.0,100,0.04,,,0.40,Wunderground v.1.15,2013-10-11 04:14:00,
2013-10-10 20:24:00,40.6,40.6,29.07,SW,225,6.0,7.0,100,0.04,,,0.40,Wunderground v.1.15,2013-10-11 04:24:00,
2013-10-10 20:34:00,40.6,40.6,29.08,SSW,205,10.0,10.0,100,0.04,,,0.41,Wunderground v.1.15,2013-10-11 04:34:00,
2013-10-10 20:41:00,-999.9,-99.9,29.08,North,32767,-999.0,0.0,255,-99.99,,,0.41,Wunderground v.1.15,2013-10-11 04:41:00,
2013-10-10 20:45:00,-999.9,-99.9,29.08,North,32767,-999.0,0.0,255,-99.99,,,0.41,Wunderground v.1.15,2013-10-11 04:45:00,
2013-10-10 20:55:00,-999.9,-99.9,29.08,North,32767,-999.0,0.0,255,-99.99,,,0.41,Wunderground v.1.15,2013-10-11 04:55:00,
2013-10-10 21:01:00,-999.9,-99.9,29.09,North,32767,-999.0,0.0,255,-99.99,,,0.41,Wunderground v.1.15,2013-10-11 05:01:00,
2013-10-10 21:11:00,-999.9,-99.9,29.09,North,32767,-999.0,0.0,255,-99.99,,,0.41,Wunderground v.1.15,2013-10-11 05:11:00,
2013-10-10 21:20:00,-999.9,-99.9,29.09,North,32767,-999.0,0.0,255,-99.99,,,0.41,Wunderground v.1.15,2013-10-11 05:20:00,
2013-10-10 21:25:00,-999.9,-99.9,29.09,North,32767,-999.0,0.0,255,-99.99,,,0.41,Wunderground v.1.15,2013-10-11 05:25:00,
2013-10-10 21:30:00,-999.9,-99.9,29.09,North,32767,-999.0,0.0,255,-99.99,,,0.41,Wunderground v.1.15,2013-10-11 05:30:00,
2013-10-10 21:40:00,-999.9,-99.9,29.09,North,32767,-999.0,0.0,255,-99.99,,,0.41,Wunderground v.1.15,2013-10-11 05:40:00,
2013-10-10 21:50:00,-999.9,-99.9,29.10,North,32767,-999.0,0.0,255,-99.99,,,0.41,Wunderground v.1.15,2013-10-11 05:50:00,
2013-10-10 22:00:00,-999.9,-99.9,29.10,North,32767,-999.0,0.0,255,-99.99,,,0.41,Wunderground v.1.15,2013-10-11 06:00:00,
2013-10-10 22:10:00,-999.9,-99.9,29.10,North,32767,-999.0,0.0,255,-99.99,,,0.41,Wunderground v.1.15,2013-10-11 06:10:00,
2013-10-10 22:20:00,-999.9,-99.9,29.11,North,32767,-999.0,0.0,255,-99.99,,,0.41,Wunderground v.1.15,2013-10-11 06:20:00,
2013-10-10 22:26:00,-999.9,-99.9,29.11,North,32767,-999.0,0.0,255,-99.99,,,0.41,Wunderground v.1.15,2013-10-11 06:26:00,
2013-10-10 22:35:00,-999.9,-99.9,29.11,North,32767,-999.0,0.0,255,-99.99,,,0.41,Wunderground v.1.15,2013-10-11 06:35:00,
2013-10-10 22:40:00,-999.9,-99.9,29.11,North,32767,-999.0,0.0,255,-99.99,,,0.41,Wunderground v.1.15,2013-10-11 06:40:00,
2013-10-10 22:50:00,-999.9,-99.9,29.11,North,32767,-999.0,0.0,255,-99.99,,,0.41,Wunderground v.1.15,2013-10-11 06:50:00,
2013-10-10 22:55:00,-999.9,-99.9,29.11,North,32767,-999.0,0.0,255,-99.99,,,0.41,Wunderground v.1.15,2013-10-11 06:55:00,
2013-10-10 23:05:00,-999.9,-99.9,29.11,North,32767,-999.0,0.0,255,-99.99,,,0.41,Wunderground v.1.15,2013-10-11 07:05:00,
2013-10-10 23:15:00,-999.9,-99.9,29.11,North,32767,-999.0,0.0,255,-99.99,,,0.41,Wunderground v.1.15,2013-10-11 07:15:00,
2013-10-10 23:25:00,-999.9,-99.9,29.11,North,32767,-999.0,0.0,255,-99.99,,,0.41,Wunderground v.1.15,2013-10-11 07:25:00,
2013-10-10 23:35:00,-999.9,-99.9,29.12,North,32767,-999.0,0.0,255,-99.99,,,0.41,Wunderground v.1.15,2013-10-11 07:35:00,
2013-10-10 23:45:00,-999.9,-99.9,29.13,North,32767,-999.0,0.0,255,-99.99,,,0.41,Wunderground v.1.15,2013-10-11 07:45:00,
2013-10-10 23:50:00,-999.9,-99.9,29.13,North,32767,-999.0,0.0,255,-99.99,,,0.41,Wunderground v.1.15,2013-10-11 07:50:00,